ISS (ZARYA) 1 25544U 98067A 26172.76913116 .00009060 00000+0 17028-3 0 9997 2 25544 51.6326 277.4139 0004499 214.6152 145.4544 15.49357580572463 POISK 1 36086U 09060A 26171.41461525 .00008813 00000+0 16600-3 0 9998 2 36086 51.6327 284.1189 0004557 208.5194 151.5545 15.49333088571937 CSS (TIANHE) 1 48274U 21035A 26171.43213816 .00020661 00000+0 24268-3 0 9990 2 48274 41.4693 302.2526 0007384 105.8714 254.2939 15.60937952293670 ISS (NAUKA) 1 49044U 21066A 26171.41461525 .00008813 00000+0 16600-3 0 9996 2 49044 51.6327 284.1189 0004557 208.5194 151.5545 15.49333088571980 FREGAT DEB 1 49271U 11037PF 26170.86525566 .00006273 00000+0 10826-1 0 9999 2 49271 51.6355 353.8561 0900592 288.1563 62.3334 12.42115278225383 CSS (WENTIAN) 1 53239U 22085A 26170.72834613 .00019835 00000+0 23343-3 0 9992 2 53239 41.4696 306.5363 0007349 99.2772 260.8898 15.60907257288235 CSS (MENGTIAN) 1 54216U 22143A 26171.43213816 .00020661 00000+0 24268-3 0 9994 2 54216 41.4693 302.2526 0007384 105.8714 254.2939 15.60937952294359 HRC MONOBLOCK CAMERA 1 66052U 98067XR 26171.43899803 .00068928 00000+0 46509-3 0 9999 2 66052 51.6232 262.4651 0002053 318.4320 41.6522 15.74446165 38517 SZ-21 MODULE 1 66515U 25246C 26171.38315940 .00041738 00000+0 25384-3 0 9999 2 66515 41.4727 287.4171 0005787 13.1539 346.9456 15.76651737 34247 SOYUZ-MS 28 1 66664U 25275A 26171.41461525 .00008813 00000+0 16600-3 0 9999 2 66664 51.6327 284.1189 0004557 208.5194 151.5545 15.49333088572089 DUPLEX 1 66906U 98067XS 26171.31376001 .00035923 00000+0 39513-3 0 9990 2 66906 51.6286 273.6830 0003068 223.5446 136.5306 15.62799537 31146 ISS OBJECT XY 1 66912U 98067XY 26171.41049138 .00615601 18512-3 10319-2 0 9996 2 66912 51.6153 256.8734 0011963 336.4641 23.5821 16.02110117 31363 KNACKSAT-2 1 67683U 98067XZ 26170.59247606 .00040473 00000+0 49084-3 0 9990 2 67683 51.6307 282.3774 0008934 225.7617 134.2643 15.60167582 20658 CORAL 1 67684U 98067YA 26171.30157074 .00197076 00000+0 11253-2 0 9998 2 67684 51.6212 272.0603 0008844 276.5417 83.4576 15.77721965 20854 GXIBA-1 1 67685U 98067YB 26171.29606699 .00051927 00000+0 58681-3 0 9990 2 67685 51.6270 278.0693 0009957 227.5676 132.4477 15.61883659 20771 UITMSAT-2 1 67686U 98067YC 26171.30122916 .00073009 00000+0 71955-3 0 9992 2 67686 51.6257 276.6025 0005208 224.8016 135.2559 15.65269956 20799 LEOPARD 1 67687U 98067YD 26170.68308358 .00046865 00000+0 54542-3 0 9992 2 67687 51.6303 281.4932 0005803 207.7967 152.2717 15.61203925 20592 HMU-SAT2 1 67688U 98067YE 26170.71876334 .00061177 00000+0 64608-3 0 9998 2 67688 51.6279 280.2226 0005528 215.4972 144.5655 15.63592563 20613 CREW DRAGON 12 1 67796U 26031A 26171.41461525 .00008813 00000+0 16600-3 0 9997 2 67796 51.6327 284.1189 0004557 208.5194 151.5545 15.49333088572031 PROGRESS-MS 33 1 68319U 26058A 26171.41461525 .00008813 00000+0 16600-3 0 9998 2 68319 51.6327 284.1189 0004557 208.5194 151.5545 15.49333088572134 CYGNUS NG-24 1 68689U 26079A 26171.15661001 .00008669 00000+0 16345-3 0 9998 2 68689 51.6329 285.3962 0004555 207.7610 152.3136 15.49327998572149 PROGRESS-MS 34 1 68837U 26093A 26171.15661001 .00008669 00000+0 16345-3 0 9999 2 68837 51.6329 285.3962 0004555 207.7610 152.3136 15.49327998572199 TIANZHOU-10 1 69049U 26102A 26170.72834613 .00019835 00000+0 23343-3 0 9992 2 69049 41.4696 306.5363 0007349 99.2772 260.8898 15.60907257 6228 SHENZHOU-23 (SZ-23) 1 69180U 26113A 26170.72834613 .00019835 00000+0 23343-3 0 9990 2 69180 41.4696 306.5363 0007349 99.2772 260.8898 15.60907257293648